Regional Weather Roundup
Issued by NWS

Home | Current Version | Previous Version | Graphics & Text | Print | Product List | Glossary On
Versions: 1 2 3 4 5 6 7 8 9 10 11 12 13 14 15 16 17 18 19 20 21 22 23 24 25 26 27 28 29 30 31 32 33 34 35 36 37 38 39 40 41 42 43 44 45 46 47 48 49 50
000
ASUS45 KTFX 272310
RWRMT
MONTANA REGIONAL WEATHER ROUNDUP
NATIONAL WEATHER SERVICE GREAT FALLS MT
500 PM MDT WED JUL 27 2016

NOTE: "FAIR" INDICATES FEW OR NO CLOUDS BELOW 12000 FEET WITH NO
SIGNIFICANT WEATHER AND/OR OBSTRUCTIONS TO VISIBILITY.

MTZ001>007-043-280000-
WEST OF THE DIVIDE

CITY           SKY/WX    TMP DP  RH WIND       PRES   REMARKS
KALISPELL      MOSUNNY   88  46  23 N10       30.05F
MISSOULA       MOSUNNY   91  42  18 N15G23    30.05F
BUTTE          MOSUNNY   86  38  18 N14       30.19F
MULLAN PASS    PTSUNNY   72  46  39 VRB5      30.27S
ANACONDA         N/A     84  46  26 N6        30.15F
DEER LODGE       N/A     84  43  23 CALM      30.17S
EUREKA           N/A     81  48  32 W3        30.08S
HAMILTON         N/A     88  48  25 N6        30.06F
LIBBY            N/A     90  46  22 CALM      30.03F
PLAINS           N/A     77  62  59 W6        30.07
RONAN            N/A     84  48  28 N6        30.12F
$$

MTZ008-052>055-280000-
SOUTHWEST MONTANA

CITY           SKY/WX    TMP DP  RH WIND       PRES   REMARKS
BOZEMAN        SUNNY     88  46  23 VRB6      30.12F
DILLON         SUNNY     89  37  16 E8        30.13F
W YELLOWSTONE  CLOUDY    79  32  18 N12G17    30.27R
ENNIS          SUNNY     86  34  15 NE12G18   30.20S
$$

MTZ009-010-012-014-046-048-049-054-280000-
EAST SLOPES AND CENTRAL MONTANA

CITY           SKY/WX    TMP DP  RH WIND       PRES   REMARKS
CUT BANK         N/A     81  50  33 E10       30.17F
GREAT FALLS    MOSUNNY   81  46  29 NE8       30.15S
MALMSTROM AFB  SUNNY     82  48  30 N6        30.14F
HELENA         CLOUDY    87  47  24 N16       30.10F
CHOTEAU          N/A     81  48  32 VRB3G12   30.19S
CONRAD           N/A     84  52  33 N1        30.17F
$$

MTZ011-013-016-021-045-047-050-051-280000-
NORTH CENTRAL MONTANA

CITY           SKY/WX    TMP DP  RH WIND       PRES   REMARKS
HAVRE          CLOUDY    76  59  55 E14G22    30.15S
LEWISTOWN      SUNNY     79  51  37 N6        30.19R
N BAR RANCH    CLOUDY    75  50  41 N12       30.21R
CHINOOK          N/A     72  61  68 E7        30.16S
$$

MTZ017>020-022>027-061-062-280000-
NORTHEAST MONTANA

CITY           SKY/WX    TMP DP  RH WIND       PRES   REMARKS
GLASGOW        PTSUNNY   74  59  59 S7        30.11F
JORDAN           N/A     77  61  57 NE8       30.10F
SIDNEY         MOSUNNY   73  59  61 N10       30.13F
WOLF POINT     PTSUNNY   76  60  57 NE12      30.13F
PLENTYWOOD       N/A     73  54  49 CALM      30.15F
SCOBEY           N/A     72  51  47 E5        30.14
$$

MTZ028>42-056>058-280000-
SOUTHCENTRAL AND SOUTHEAST MONTANA

CITY           SKY/WX    TMP DP  RH WIND       PRES   REMARKS
BAKER          SUNNY     77  59  53 CALM      30.13F
BILLINGS       MOSUNNY   81  54  39 NE17G28   30.11R
LIVINGSTON     SUNNY     90  39  16 E7        30.12F
MILES CITY     MOSUNNY   83  58  42 NE9       30.07F
EKALAKA          N/A     80  55  42 E6        30.10F
FORSYTH          N/A     82  57  42 CALM      30.06F
LAUREL           N/A     78  58  50 N7        30.09F
ROUNDUP          N/A     78  55  44 CALM      30.04S
$$

REGIONAL REPORTS...DAKOTAS

CITY           SKY/WX    TMP DP  RH WIND       PRES   REMARKS
WILLISTON      LGT RAIN  65  60  84 NE9       30.15S
MINOT          CLOUDY    76  57  51 NE8       30.11F
DICKINSON      CLOUDY    73  58  59 NE3       30.11R
BEACH            N/A     75  61  60 NE13G20   30.15F
CROSBY         PTSUNNY   72  63  73 E8        30.17S
WATFORD CITY     N/A    N/A N/A N/A MISG        N/A
BISMARCK       CLOUDY    76  60  57 E8        30.08F
GRAND FORKS    MOSUNNY   77  59  53 N14       30.03F
FARGO          SUNNY     78  58  49 N12       30.01F
BUFFALO SD       N/A     76  54  46 E7        30.06S
RAPID CITY     SUNNY     79  61  53 NE12      30.11F
$$

REGIONAL REPORTS...WYOMING/IDAHO/WASHINGTON

CITY           SKY/WX    TMP DP  RH WIND       PRES   REMARKS
GILLETTE       PTSUNNY   79  53  40 NE13      30.12F THUNDER
SHERIDAN       SUNNY     89  49  25 NE6       30.11S
BUFFALO WY     SUNNY     86  49  27 NW9       30.17F
CODY           SUNNY     84  46  26 CALM      30.15F
YELLOWSTONE LA   N/A     76  24  14 VRB7      30.36F
IDAHO FALLS    MOSUNNY   92  33  12 SE13      30.11F
SALMON         SUNNY     91  45  19 N7        29.99F
BOISE          SUNNY    100  42  13 NW12G18   29.95F HX  95
SPOKANE        MOSUNNY   90  47  22 CALM      30.04F
$$

REGIONAL REPORTS...ALBERTA

CITY           SKY/WX    TMP DP  RH WIND       PRES   REMARKS
EDMONTON       MOSUNNY   75  57  53 W7        30.13F
CALGARY        MOSUNNY   77  52  41 E9        30.18S
LETHBRIDGE     PTSUNNY   79  59  50 SE5       30.16R
MEDICINE HAT   PTSUNNY   84  54  34 NE5       30.13F
WATERTON GATE    N/A     70  54  56 NE3         N/A
MILK RIVER       N/A     79  52  38 NE5         N/A
$$

REGIONAL REPORTS...SASKATCHEWAN

CITY           SKY/WX    TMP DP  RH WIND       PRES   REMARKS
SWIFT CURRENT  SUNNY     72  48  43 NE8       30.17S
REGINA         PTSUNNY   73  55  53 E6        30.15F
SASKATOON      MOSUNNY   79  52  38 CALM      30.16F
CYPRESS HILLS    N/A     70  52  52 E6          N/A
VAL MARIE        N/A     72  59  64 SE7         N/A
ASSINIBOIA       N/A     72  61  68 SW7         N/A
$$



USA.gov is the U.S. government's official web portal to all federal, state and local government web resources and services.